Preview of NWS' New Version of Forecast
This preview is not operational and should not be used for support decisions.
Latest weather observations around

Fort Smith, Fort Smith Regional Airport (KFSM)

Using English Units (Switch to International System of Units)
Date/ Time (CDT) Wind (mph) Vis. (mi) Weather Sky Cond. Temp (°F) Rel. Humidity Wind Chill (°F) Heat Index (°F) Pressure Precip. (in)
Air Dwpt 6 hour Altimeter (inHg) Sea level (inHg) 1 hr 3 hr 6 hr
Max Min
Apr 25 09:53 WSW 6 9 Light Rain OVC075 56 52     87%     30.14 30.13 0 0  
Apr 25 08:53   10 Cloudy OVC095 57 46     67%     30.13 30.12 0    
Apr 25 07:53 W 3 10 Mostly Cloudy BKN110 56 50     80%     30.08 30.07      
Apr 25 06:53 W 6 10 Clear CLR 53 47     80%     30.07 30.06      
Apr 25 05:53 WSW 7 10 Clear CLR 53 47     80%     30.06 30.05      
Apr 25 04:53 E 6 10 Clear CLR 52 46     80%     29.99 29.98      
Apr 25 03:53 Calm 10 Mostly Clear FEW120 51 46     83%     30.04 30.03      
Apr 25 02:53 SW 5 10 Clear CLR 55 47     74%     30.06 30.04      
Apr 25 01:53 Calm 10 Clear CLR 55 47     74%     30.05 30.04      
Apr 25 00:53 Calm 10 Clear CLR 58 45     62%     30.06 30.05      
Apr 24 22:53 N 3 10 Clear CLR 66 41     40%     30.06 30.04      
Apr 24 21:53 N 7 10 Clear CLR 68 40     36%     30.05 30.03      
Apr 24 20:53 NNW 9 10 Clear CLR 72 39     30%   70 30.03 30.02      
Apr 24 19:53 N 7 10 Clear CLR 74 39     28%   72 30.01 30      
Apr 24 18:53 N 10 10 Clear CLR 79 37     22%   78 30 29.99      
Apr 24 17:53 NW 10 10 Clear CLR 81 36     20%   80 29.99 29.98      
Apr 24 16:53 WNW 13 10 Clear CLR 81 36     20%   80 29.99 29.98      
Apr 24 15:53 NNW 14 10 Clear CLR 81 39     22%   80 29.99 29.98      
Apr 24 14:53 NW 13 10 Clear CLR 81 43     26%   80 30.01 30      
Apr 24 13:53 WNW 8 10 Clear CLR 78 41     27%   77 30.03 30.02      
Apr 24 12:53 N 14 10 Clear CLR 77 39     26%   76 30.05 30.04      
Apr 24 10:53 NNW 7 10 Clear CLR 72 46     40%   71 30.08 30.07      
Apr 24 09:53 Calm 10 Clear CLR 66 50     56%     30.09 30.08      
Apr 24 08:53 W 6 10 Clear CLR 59 51     75%     30.09 30.09      
Apr 24 07:53 W 5 10 Clear CLR 55 51     86%     30.08 30.07      
Apr 24 06:53 W 6 10 Clear CLR 51 48     89%     30.06 30.05      
Apr 24 05:53 WSW 6 10 Clear CLR 50 47     89% 48   30.04 30.03      
Apr 24 04:53 W 6 10 Clear CLR 50 48     93% 48   30.03 30.02      
Apr 24 03:53 WSW 3 10 Clear CLR 53 49     86%     30.02 30.01      
Apr 24 02:53 SW 5 10 Clear CLR 54 49     83%     30 29.99      
Apr 24 00:53 Calm 10 Clear CLR 54 50     86%     30 29.99      
Apr 23 23:53 Calm 10 Clear CLR 59 48     67%     30 29.99      
Apr 23 22:53 Calm 10 Clear CLR 60 49     67%     29.99 29.98      
Apr 23 21:53 N 5 10 Mostly Cloudy BKN075 67 47     49%     29.98 29.97      
Apr 23 20:53 N 6 10 Cloudy OVC070 68 47     47%     29.96 29.96      
Apr 23 19:53 N 9 10 Cloudy OVC070 71 47     42%   70 29.94 29.93      
Apr 23 18:53 NW 8 10 Cloudy OVC070 73 47     39%   72 29.93 29.92      
Apr 23 17:53 N 15 10 Clear CLR 74 48     40%   73 29.93 29.92      
Apr 23 16:53 NNW 10 10 Partly Cloudy SCT060 73 51     46%   72 29.93 29.92      
Apr 23 15:53 NNW 17 10 Partly Cloudy SCT060 72 52     49%   71 29.94 29.93      
Apr 23 14:53 NW 13 10 Mostly Clear FEW044 71 53     53%   70 29.96 29.95      
Apr 23 14:00 NW 13 10 Mostly Clear FEW070 69 54     59%     29.98        
Apr 23 13:53 NW 13 10 Mostly Cloudy BKN026 BKN060 69 55     61%     29.98 29.97      
Apr 23 12:53 WNW 13 10 Mostly Cloudy BKN026 BKN060 66 55     68%     29.99 29.99      
Apr 23 12:41 NW 11 10 Mostly Cloudy SCT023 BKN030 65 54     68%     30        
Apr 23 11:53 NW 11 10 Cloudy OVC020 60 53     78%     30.02 30.01      
Apr 23 10:53 WNW 11 10 Cloudy OVC017 58 52     81%     30.02 30.02      
Apr 23 09:53 W 11 10 Cloudy OVC018 57 52     83%     30.01 30.01      
Apr 23 08:53 WNW 8 10 Cloudy OVC017 56 51     84%     30 30      
Apr 23 08:44 WNW 9 10 Cloudy OVC015 56 51     84%     30        
Apr 23 07:53 WNW 10 10 Mostly Cloudy BKN015 BKN080 55 51     86%     29.99 29.98      
Apr 23 07:26 W 6 10 Mostly Cloudy SCT015 BKN080 53 51     93%     29.98        
Apr 23 07:00 W 5 10 Mostly Cloudy BKN016 54 50     86%     29.97        
Apr 23 06:53 NW 3 10 Partly Cloudy SCT016 54 50     86%     29.97 29.96     0
Apr 23 06:16 NNW 6 10 Mostly Cloudy BKN016 55 51     86%     29.96        
Apr 23 05:53 NW 3 10 Partly Cloudy SCT016 54 51     90%     29.94 29.94      
Apr 23 04:53 NNW 8 10 Cloudy OVC018 56 51     84%     29.94 29.93      
Apr 23 04:14 NNW 8 10 Mostly Cloudy BKN016 55 53     93%     29.93        
Apr 23 03:53 NNW 7 10 Cloudy SCT016 SCT040 OVC055 56 54     93%     29.93 29.93   0  
Apr 23 02:53 WNW 7 10 Cloudy OVC030 55 54     96%     29.93 29.93      
Apr 23 01:53 W 9 10 Cloudy OVC034 55 54     96%     29.94 29.94 0    
Apr 23 00:53 W 10 10 Cloudy SCT016 BKN030 OVC038 55 53     93%     29.95 29.94      
Apr 23 00:26 W 13 10 Cloudy FEW006 BKN019 OVC046 54 53     97%     29.95        
Apr 23 00:09 W 10 10 Cloudy FEW006 BKN042 OVC075 54 53     97%     29.95        
Apr 22 23:53 W 10 10 Cloudy FEW009 BKN019 OVC075 54 53     97%     29.95 29.95      
Apr 22 23:42 W 10 10 Cloudy FEW007 BKN019 OVC060 54 53     97%     29.95        
Apr 22 22:53 W 7 10 Cloudy OVC007 54 53     97%     29.97 29.96      
Apr 22 22:10 W 8 10 Cloudy BKN008 OVC011 54 53     97%     29.97        
Apr 22 21:53 W 8 10 Cloudy OVC013 54 52     93%     29.97 29.96      
Apr 22 20:53 W 8 10 Cloudy OVC013 54 52     93%     29.96 29.96      
Apr 22 19:53 W 7 10 Cloudy OVC011 54 52     93%     29.96 29.95      
Apr 22 19:16 W 8 9 Cloudy OVC010 54 53     97%     29.95        
Apr 22 19:06 W 8 6 Fog/Mist BKN008 OVC012 54 53     97%     29.95        
Apr 22 18:59 W 9 7 Cloudy BKN010 OVC016 54 53     97%     29.95        
Apr 22 18:53 W 9 2.5 Fog/Mist OVC006 54 53     97%     29.95 29.94 0   0
Apr 22 17:53 W 10 2.5 Fog/Mist OVC006 54 53     97%     29.95 29.95 0    
Apr 22 17:39 W 13 2 Light Rain and Fog/Mist OVC006 53 53     100%     29.95   0    
Apr 22 17:00 W 9 3 Fog/Mist OVC006 53 52     96%     29.95        
Apr 22 16:53 W 13 2.5 Fog/Mist OVC006 53 52     96%     29.95 29.94      
Apr 22 16:05 W 10 2.5 Fog/Mist OVC007 53 52     96%     29.95        
Apr 22 15:53 W 11 4 Fog/Mist OVC008 53 51     93%     29.95 29.95      
Apr 22 14:53 W 13 8 Cloudy OVC009 54 51     90%     29.97 29.96      
Apr 22 13:53 W 11 10 Cloudy OVC009 54 50     86%     29.97 29.97      
Apr 22 12:53 W 13 10 Cloudy OVC009 53 50     89%     29.97 29.96      
Apr 22 11:53 W 15 9 Cloudy OVC008 52 50     93%     29.99 29.98      
Apr 22 10:53 W 13 10 Cloudy OVC007 53 51     93%     29.98 29.97      
Jun 11 22:53 ENE 6 10 Clear CLR 74 63     69%   74 29.94 29.93      
Jun 11 20:53 Calm 10 Clear CLR 82 61     49%   83 29.91 29.89      
Jun 11 14:53 S 9 10 Partly Cloudy SCT060 88 61     40%   88 29.96 29.94      
Jun 11 08:53 E 6 10 Clear CLR 78 65     64%   79 29.97 29.95      
Jun 10 15:53 SSE 11 10 Cloudy OVC055 85 63     48%   86 29.89 29.87      
Jun 09 01:53 NE 5 10 Clear CLR 64 60     87%     29.92 29.91      
Jun 08 11:53 S 5 10 Clear CLR 79 51     38%   78 30.04 30.02      
Jun 07 08:53 ENE 7 10 Partly Cloudy SCT055 72 55     55%   71 30.02 30      
Jun 06 03:22 Calm 3 Fog/Mist CLR 69 67     93%     29.84